Fort Stewart, GA

2:06 PM EST on February 20, 2017 (GMT -0500)
Wright Army Air Field

Weather History for KLHW - September, 2013

Change the Weather History Date:

Wednesday, September 18, 2013

  Actual Average Record
Temperature  
Mean Temperature 74 °F -  
Max Temperature 82 °F 87 °F 95 °F (1972)
Min Temperature 66 °F 67 °F 57 °F (1981)
Cooling Degree Days 8    
Growing Degree Days 24 (Base 50)    
Moisture  
Dew Point 66 °F    
Average Humidity 81    
Maximum Humidity 100    
Minimum Humidity 61    
Precipitation  
Precipitation 0.00 in - - ()
Sea Level Pressure  
Sea Level Pressure 30.15 in    
Wind  
Wind Speed 8 mph (NE)    
Max Wind Speed 12 mph    
Max Gust Speed -    
Visibility 10 miles    
Events      
Averages and records for this station are not official NWS values.
T = Trace of Precipitation, MM = Missing Value Source: NWS Daily Summary

Daily Weather History Graph

Daily Weather History Graph

Search for Another Location

Airport or City:

Trip Planner

Search our weather history database for the weather conditions in past years. The results will help you decide how hot, cold, wet, or windy it might be!

Date:

Astronomy

Sep. 18, 2013 Rise Set
Actual Time 7:12 AM EDT 7:27 PM EDT
Civil Twilight 6:47 AM EDT 7:52 PM EDT
Nautical Twilight 6:19 AM EDT 8:20 PM EDT
Astronomical Twilight 5:50 AM EDT 8:49 PM EDT
Moon 6:51 PM EDT (9/18) 6:14 AM EDT (9/18)
Length of Visible Light 13h 04m
Length of Day
12h 15m
Waxing Gibbous, 99% of the Moon is Illuminated
Sep 18
Waxing Gibbous
Sep 19
Full
Sep 26
Last Quarter
Oct 4
New
Oct 11
First Quarter

Hourly Weather History & Observations

Time (EDT) Temp. Heat Index Dew Point Humidity Pressure Visibility Wind Dir Wind Speed Gust Speed Precip Events Conditions
12:58 AM 69.4 °F - 66.4 °F 90% 30.15 in 10.0 mi NNE 6.9 mph - N/A   Clear
1:58 AM 68.5 °F - 65.8 °F 91% 30.14 in 10.0 mi NNE 6.9 mph - N/A   Clear
2:58 AM 67.8 °F - 65.7 °F 93% 30.13 in 10.0 mi NNE 6.9 mph - N/A   Clear
3:58 AM 67.5 °F - 65.5 °F 93% 30.12 in 10.0 mi NE 5.8 mph - N/A   Clear
4:58 AM 67.3 °F - 65.5 °F 94% 30.12 in 10.0 mi NNE 10.4 mph - N/A   Clear
5:58 AM 66.4 °F - 65.5 °F 97% 30.13 in 10.0 mi NNE 9.2 mph - N/A   Clear
6:58 AM 66.0 °F - 65.7 °F 99% 30.14 in 10.0 mi NNE 8.1 mph - N/A   Clear
7:58 AM 66.4 °F - 66.4 °F 100% 30.16 in 10.0 mi NNE 8.1 mph - N/A   Clear
8:58 AM 69.6 °F - 67.6 °F 93% 30.17 in 10.0 mi NNE 10.4 mph - N/A   Clear
9:58 AM 73.8 °F - 68.7 °F 84% 30.19 in 10.0 mi NNE 11.5 mph - N/A   Partly Cloudy
10:58 AM 77.2 °F - 69.1 °F 76% 30.19 in 10.0 mi ENE 10.4 mph - N/A   Clear
11:58 AM 79.0 °F - 68.2 °F 69% 30.19 in 10.0 mi ENE 9.2 mph - N/A   Clear
12:58 PM 80.4 °F 82.7 °F 66.7 °F 63% 30.18 in 10.0 mi NE 10.4 mph - N/A   Clear
1:58 PM 80.6 °F 82.7 °F 66.0 °F 61% 30.17 in 10.0 mi ENE 8.1 mph - N/A   Clear
2:58 PM 81.1 °F 83.4 °F 66.6 °F 61% 30.14 in 10.0 mi ENE 8.1 mph - N/A   Clear
3:58 PM 81.7 °F 84.2 °F 67.3 °F 61% 30.12 in 10.0 mi NNE 10.4 mph - N/A   Clear
4:58 PM 81.7 °F 84.2 °F 67.1 °F 61% 30.11 in 10.0 mi NE 8.1 mph - N/A   Clear
5:58 PM 80.8 °F 83.1 °F 66.6 °F 62% 30.11 in 10.0 mi NE 8.1 mph - N/A   Scattered Clouds
6:58 PM 77.9 °F - 66.0 °F 67% 30.11 in 10.0 mi NE 4.6 mph - N/A   Clear
7:58 PM 72.5 °F - 67.5 °F 84% 30.12 in 10.0 mi NNE 3.5 mph - N/A   Clear
8:58 PM 69.3 °F - 67.3 °F 93% 30.14 in 10.0 mi NE 2.3 mph - N/A   Clear
9:58 PM 69.3 °F - 65.5 °F 88% 30.15 in 10.0 mi NE 6.9 mph - N/A   Clear
10:58 PM 68.2 °F - 64.0 °F 87% 30.15 in 10.0 mi NE 4.6 mph - N/A   Clear
11:58 PM 67.1 °F - 63.5 °F 88% 30.15 in 10.0 mi NNE 6.9 mph - N/A   Clear